EHI
3 3 5 5 4 4 3 2 2 1 1 1 0 0 0 0 0 0 0 0 0 0 0 0 0 0 0 0 0 0 0 0 0 0 0 0 1 1
1 2 4 4 4 5 4 3 2 1 1 1 1 0 0 0 0 0 0 0 0 0 0 0 0 0 0 0 0 0 0 0 0 0 0 0 0 1
0 1 3 4 5 5 6 5 3 1 0 0 1 1 1 1 0 0 0 0 0 0 0 0 0 0 0 0 0 0 0 0 0 0 0 0 0 0
2 2 3 4 4 5 6 6 5 3 2 1 2 2 2 1 0 0 0 0 0 0 0 0 0 0 0 0 0 0 0 0 0 0 0 0 0 0
4 4 4 4 4 5 6 7 7 6 5 4 4 3 3 1 0 0 0 0 0 0 0 0 0 0 0 0 0 0 0 0 0 0 0 0 0 0
4 4 3 3 3 4 5 6 6 6 4 4 4 3 2 1 0 0 0 0 0 0 0 0 0 0 0 0 0 0 0 0 0 0 0 0 0 0
2 2 1 1 1 2 3 3 3 3 3 2 2 1 1 0 0 0 0 0 0 0 0 0 0 0 0 0 0 0 0 0 0 0 0 0 0 0
0 0 0 0 0 1 1 1 1 2 2 2 2 1 1 0 0 0 0 0 0 0 0 0 0 0 0 0 0 0 0 0 0 0 0 0 0 0
0 0 0 0 0 1 1 1 1 1 1 2 2 2 2 1 0 0 0 0 0 0 0 0 0 0 0 0 0 0 0 0 0 0 0 0 0 0
0 0 0 0 0 1 2 2 2 2 1 1 1 2 2 1 0 0 0 0 0 0 0 0 0 0 0 0 0 0 0 0 0 0 0 0 0 0
0 0 0 0 0 0 1 1 1 1 1 0 0 1 1 1 0 0 0 0 0 0 0 0 0 0 0 0 0 0 0 0 0 0 0 0 0 0
0 0 0 0 0 0 0 0 0 0 0 0 0 0 0 0 0 0 0 0 0 0 0 0 0 0 0 0 0 0 0 0 0 0 0 0 0 0
0 0 0 0 0 0 0 0 0 0 0 0 0 0 0 0 0 0 0 0 0 0 0 0 0 0 0 0 0 0 0 0 0 0 0 0 0 0
0 0 0 0 0 0 0 0 0 0 0 0 0 0 0 0 0 0 0 0 0 0 0 0 0 0 0 0 0 0 0 0 0 0 0 0 0 0
0 0 0 0 0 0 0 0 0 0 0 0 0 0 0 0 0 0 0 0 1 1 1 0 0 0 0 0 0 0 0 0 0 0 0 0 0 0
0 0 0 0 0 0 0 0 0 0 0 0 0 0 0 0 0 0 0 0 1 2 2 1 0 0 0 0 0 0 0 0 0 0 0 0 0 0
0 0 1 2 1 1 0 0 0 0 0 0 0 0 0 0 0 0 0 0 0 1 2 2 1 0 0 0 0 0 0 0 0 0 0 0 0 0
0 0 1 2 2 1 0 0 0 0 0 0 0 0 0 0 0 0 0 0 0 0 1 2 1 0 0 0 0 0 0 0 0 0 0 0 0 0
0 0 1 1 1 1 0 0 0 0 0 0 0 0 0 0 0 0 0 0 0 0 0 1 1 0 0 0 0 0 0 0 0 0 0 0 0 0
0 0 0 0 0 0 0 0 0 0 0 0 0 0 0 0 0 0 0 0 0 0 0 0 0 0 0 0 0 0 0 0 0 0 0 0 0 0
0 0 0 0 0 0 0 0 0 0 0 0 0 0 0 0 0 0 0 0 0 0 0 0 0 0 0 0 0 0 0 0 0 0 0 0 0 0
0 0 0 0 0 0 0 0 0 0 0 0 0 0 0 0 0 0 0 0 0 0 0 0 0 0 0 0 0 0 0 0 0 0 0 0 0 0
0 0 0 0 0 0 0 0 0 0 0 0 0 0 0 0 0 0 0 0 0 0 0 0 0 0 0 0 0 0 0 0 0 0 0 0 0 0
Wind_Speed
2 2 2 2 2 3 3 3 2 1 2 2 2 2 2 2 1 1 1 1 1 1 0 0 0 1 1 1 1 1 1 1 1 1 1 2 4 4
2 2 2 2 2 2 3 3 3 3 2 2 3 2 2 2 2 2 2 1 1 1 1 0 0 1 1 1 1 1 1 1 1 1 2 2 3 4
2 2 3 2 2 2 2 2 2 2 3 2 1 1 2 2 1 1 1 2 1 2 2 1 1 1 1 1 1 1 1 1 1 1 2 1 2 3
2 2 3 2 2 2 2 2 2 3 3 3 1 1 2 2 2 2 2 1 2 2 2 2 2 1 1 1 1 1 1 1 1 2 2 1 1 2
3 3 3 2 2 2 2 2 2 2 2 2 2 1 1 1 1 1 1 1 2 1 2 2 2 2 2 2 2 2 2 2 2 2 2 2 2 2
2 2 2 3 3 2 2 2 1 1 1 2 1 1 1 1 1 1 1 1 2 1 1 2 2 3 3 3 3 3 3 3 3 3 3 3 3 3
1 1 1 1 2 2 2 2 2 2 1 2 2 1 1 1 2 1 2 1 1 1 1 2 1 2 2 3 4 3 3 3 3 3 3 3 3 3
1 1 1 1 1 1 2 3 3 3 3 2 2 3 3 2 1 2 1 1 2 1 1 2 2 2 2 3 3 4 4 4 4 4 4 4 4 4
2 2 1 1 0 0 0 1 2 3 4 4 4 4 3 3 3 3 3 3 3 1 2 2 2 3 3 3 5 5 5 5 5 5 4 4 5 5
1 2 1 1 1 0 0 1 1 2 3 3 4 4 4 4 4 4 4 2 2 1 2 3 2 3 3 3 5 6 7 7 7 6 6 5 5 5
1 1 1 1 1 1 1 1 2 2 2 2 3 4 4 4 3 2 2 2 2 2 2 2 2 2 3 4 4 6 7 7 8 8 7 6 6 5
1 1 1 1 1 1 1 1 2 3 2 2 2 2 2 2 4 4 4 3 2 2 3 3 2 1 2 2 3 3 4 6 8 8 8 8 6 4
1 1 1 1 1 2 2 3 4 3 2 2 2 2 1 1 2 3 4 4 4 3 3 3 2 2 3 2 2 3 3 3 4 5 7 8 8 7
2 2 2 2 2 3 2 3 3 2 1 1 1 2 2 2 2 3 3 4 4 5 4 4 3 3 3 3 3 3 3 3 4 4 4 5 7 9
1 2 3 3 3 2 2 2 2 1 1 1 2 3 3 3 2 2 2 2 3 4 4 4 4 3 4 4 4 3 3 3 4 4 4 4 4 4
1 1 2 2 1 1 1 1 1 1 2 2 3 3 2 2 2 1 2 1 2 3 3 4 5 5 4 5 5 5 4 3 3 4 4 4 4 5
0 0 1 1 1 1 1 1 1 1 1 2 2 2 2 2 2 2 2 2 2 3 3 2 3 3 5 4 4 5 5 4 4 4 4 5 5 5
2 1 1 1 1 2 2 2 2 2 2 2 2 2 3 3 3 2 2 3 4 4 4 2 2 2 2 4 6 6 4 4 4 4 4 4 5 5
2 1 2 2 2 2 2 2 3 3 2 2 3 3 3 3 3 3 3 3 4 4 4 3 2 3 4 5 4 5 5 4 3 3 4 5 6 5
1 2 2 3 3 3 3 3 3 3 2 2 3 3 3 3 3 4 4 4 4 4 4 3 3 4 5 5 4 4 6 5 4 5 5 4 4 5
2 2 3 3 3 3 3 3 3 3 3 3 3 3 3 3 4 4 4 5 5 4 5 5 5 5 4 3 4 4 4 6 6 5 4 4 4 4
2 3 3 3 2 2 2 2 3 3 3 3 3 3 3 4 4 5 4 4 5 5 6 5 3 3 3 4 6 6 5 4 4 6 7 6 4 4
3 3 2 2 2 2 2 3 3 3 3 4 4 4 4 4 4 4 4 5 5 5 5 5 3 3 4 5 6 6 6 5 3 3 4 6 8 9
Wind_Direction
221 217 220 222 209 207 194 186 184 220 255 242 242 245 240 235 229 243 263 232 217 216 214 336 31 51 62 56 48 57 72 94 104 84 43 161 165 162
211 217 235 232 222 209 202 203 200 198 228 235 234 246 232 229 206 229 245 240 218 210 214 228 84 77 87 90 91 82 76 105 124 108 112 140 161 164
230 226 243 235 231 225 211 205 203 197 224 257 237 239 217 223 232 237 246 248 249 229 230 233 213 177 150 129 127 129 141 167 167 145 138 136 144 166
236 238 252 243 243 240 223 219 214 208 208 237 250 225 222 222 227 231 240 243 250 246 232 228 220 210 196 204 207 205 220 215 180 167 161 172 184 177
228 229 240 227 244 251 238 232 225 215 206 209 232 224 222 211 226 249 254 270 266 250 228 223 227 230 225 222 221 224 223 212 203 200 198 201 207 203
239 234 232 219 222 224 226 231 211 197 190 195 199 215 234 212 197 223 264 272 279 270 269 256 246 240 237 230 223 214 214 217 216 215 215 220 225 222
253 261 248 239 209 200 201 205 196 197 198 204 211 215 220 205 219 220 245 276 276 246 266 264 247 246 244 234 220 215 216 222 226 224 223 221 224 226
221 283 287 256 231 219 216 203 197 197 205 207 215 224 235 222 211 207 208 223 261 223 226 263 238 245 250 239 230 221 219 223 224 223 224 226 224 224
214 231 270 321 342 321 279 215 230 236 216 207 217 231 231 216 197 208 211 221 244 228 203 251 240 253 258 248 233 229 230 231 230 229 228 228 230 228
226 225 238 283 308 21 314 310 285 265 246 231 233 244 245 229 209 208 209 218 263 237 200 242 244 253 263 256 238 233 235 234 231 229 227 227 227 228
277 278 251 259 283 113 128 302 312 312 295 266 263 263 259 242 202 175 187 203 253 247 203 231 253 263 255 248 245 236 235 233 233 232 228 226 226 225
309 305 264 252 283 171 183 210 265 288 311 325 318 296 262 237 204 199 198 206 229 245 203 210 231 247 266 245 247 250 240 236 232 231 229 227 220 222
258 277 282 293 277 248 222 226 239 252 273 283 294 303 298 264 233 222 214 209 218 237 207 195 220 225 247 270 266 248 245 249 241 236 228 227 222 216
241 264 283 302 294 281 262 266 258 244 243 273 289 293 292 285 270 248 232 229 235 243 221 198 217 222 234 256 265 257 252 252 243 241 242 232 228 226
244 270 296 302 301 295 290 283 254 228 214 248 269 274 273 276 284 281 266 252 257 250 230 219 222 229 236 249 259 259 265 259 237 242 244 237 233 227
278 308 314 303 285 294 315 276 253 254 240 254 269 275 278 275 270 272 276 279 281 282 257 242 232 228 244 249 251 257 251 251 247 245 249 249 241 232
165 360 356 351 341 333 319 297 288 288 275 281 275 279 280 279 282 278 259 258 259 273 285 278 263 251 249 248 250 250 250 253 252 246 244 254 251 243
139 188 272 275 275 280 282 284 273 264 268 268 267 270 271 270 272 267 252 254 260 267 274 275 267 269 267 256 233 248 255 261 259 242 242 254 261 255
156 241 263 267 265 262 258 262 269 271 265 263 265 265 266 267 265 264 260 262 265 269 271 264 249 252 271 282 265 224 248 265 264 255 247 251 261 263
227 251 265 268 262 259 262 265 269 271 265 264 265 265 260 259 260 263 262 264 267 272 272 261 249 244 251 269 276 270 236 244 253 260 265 263 267 265
244 254 262 266 262 259 262 264 265 268 272 270 268 267 261 257 260 264 266 266 264 266 266 265 261 257 262 264 270 274 264 238 240 250 256 261 268 264
248 257 262 264 266 266 266 266 269 274 275 269 268 266 263 257 260 263 264 266 264 264 270 274 273 253 241 249 263 274 282 280 254 242 241 239 245 252
247 253 258 264 266 265 267 270 272 275 275 274 275 273 269 265 262 260 259 260 267 270 273 277 275 265 257 255 262 269 275 279 277 276 272 256 246 253